Location: Cheching
(60.0667°N, 164.2167°W)
Time: 14:30:06
(UTC+00:00)

STRAND 1 - Pass Details

Date: 24 January 2021
Orbit: 768 x 780 km, 98.4° (Epoch: 04 March)

Event Time Altitude Azimuth Distance (km) Brightness Sun altitude
Rises 14:06:48 0° 86° (E) 3,255 ? -38.3°
Reaches altitude 10° 14:10:21 10° 60° (ENE) 2,333 ? -37.9°
Maximum altitude 14:12:39 13° 33° (NNE) 2,122 ? -37.7°
Drops below altitude 10° 14:14:57 10° 6° (N) 2,341 ? -37.4°
Enters shadow 14:16:38 - 352° (N) 2,720 ? -37.2°
